RH
63 65 63 61 64 67 67 68 68 70 72 72 71 70 70 71 72 71 69 69 72 73 75 75 75 76 74 71 72 72 76 80 80 83 84 81 85 90 90 86 86 91
62 63 64 62 63 66 66 68 70 72 72 71 71 71 70 70 69 69 69 69 70 70 73 76 74 75 74 70 70 71 73 79 79 79 80 79 80 85 88 87 88 92
61 60 61 61 60 60 62 67 71 72 70 69 70 69 68 69 68 69 70 70 70 70 71 73 72 73 73 71 72 70 69 74 77 78 81 78 76 79 82 88 91 87
62 60 60 60 59 59 62 67 69 69 68 68 68 68 69 70 70 69 69 70 72 71 69 69 69 70 72 73 73 70 69 71 71 74 81 81 81 82 81 85 89 82
60 61 62 61 60 60 62 66 68 68 68 68 68 68 68 70 70 68 67 68 69 68 67 67 68 68 71 74 74 73 74 72 67 68 73 76 76 77 78 83 87 83
61 62 63 62 60 60 60 63 66 68 68 68 68 68 67 69 70 69 69 69 68 68 67 68 69 68 69 74 76 78 76 71 69 69 70 73 73 72 74 77 80 80
61 61 62 61 58 59 60 62 65 66 66 67 69 70 70 70 71 71 73 74 74 74 74 74 73 72 72 75 77 78 76 72 74 73 70 72 75 75 76 76 75 76
59 60 60 58 56 57 59 58 59 60 63 67 68 67 69 71 71 71 72 75 76 77 80 81 78 74 73 74 76 77 77 77 79 80 77 76 76 76 75 76 77 78
60 60 58 56 55 55 54 52 50 51 56 62 65 64 66 69 71 72 73 76 78 79 83 86 83 77 73 73 76 79 80 81 83 85 82 76 74 75 75 76 80 82
61 59 56 53 52 51 50 48 46 46 49 56 61 64 67 69 71 74 76 78 80 81 84 84 80 77 74 74 76 78 81 82 84 87 84 75 73 76 76 78 81 83
59 57 54 52 51 50 48 47 47 49 51 53 57 62 65 66 67 70 76 79 79 79 81 81 78 77 78 78 77 78 82 81 82 85 81 73 74 77 77 78 81 83
56 54 52 50 51 50 49 50 51 51 50 49 50 52 54 55 56 60 69 76 78 76 76 77 77 78 80 81 79 79 81 80 82 82 76 71 75 79 79 79 82 87
53 52 51 49 49 50 50 52 51 51 51 51 50 49 49 49 51 53 58 66 72 73 72 74 78 79 81 83 81 80 79 80 81 80 75 74 78 80 80 80 83 89
51 50 50 49 50 50 51 53 54 56 57 55 51 49 48 49 50 51 52 56 61 65 69 73 75 76 79 83 83 80 79 78 79 79 75 75 79 80 79 82 87 90
52 51 49 50 50 51 53 55 57 59 57 52 48 46 46 48 51 53 54 55 57 62 69 72 71 73 79 80 77 76 77 77 78 80 77 75 79 81 79 81 87 89
52 52 50 51 51 53 55 56 57 56 52 49 48 46 47 50 54 57 55 53 54 58 65 70 71 76 81 76 70 71 76 79 80 81 80 77 78 81 83 84 88 88
50 51 51 51 52 54 56 57 57 54 48 48 48 48 50 53 55 56 54 52 54 57 63 68 71 76 80 76 72 73 76 79 81 80 80 79 76 79 84 88 88 87
49 49 49 50 51 53 55 57 56 53 48 47 47 46 48 50 51 52 52 54 57 59 61 64 67 72 78 78 76 78 77 77 78 79 80 80 79 81 84 87 88 86
47 48 48 49 51 52 55 55 53 51 48 46 44 44 46 49 50 50 50 52 55 57 58 61 64 70 78 78 76 81 79 71 72 78 79 78 82 86 86 87 89 88
46 47 48 49 52 53 56 56 53 49 47 44 42 42 44 47 47 47 47 48 50 51 53 56 60 67 74 73 74 79 71 58 64 77 77 76 83 88 86 86 90 91
46 46 48 51 54 55 57 56 51 45 44 44 43 41 42 46 47 48 49 48 47 48 48 50 54 59 64 68 73 74 61 53 65 77 75 76 83 87 85 82 85 91
45 46 48 51 53 53 55 53 46 42 42 42 44 45 44 45 46 47 49 52 52 51 49 49 52 55 59 64 69 69 61 58 66 70 71 76 82 87 88 81 79 85
45 46 47 48 49 51 52 48 43 40 40 42 46 46 42 41 41 40 45 53 56 56 57 57 54 52 54 58 63 66 63 62 63 64 69 77 83 89 89 81 78 80
45 45 45 46 48 50 49 44 42 41 41 45 48 45 44 47 47 45 49 53 53 52 55 59 57 52 51 55 60 61 60 63 66 66 69 74 82 89 87 82 81 78
45 44 45 46 47 47 44 44 47 46 45 50 50 47 52 58 55 55 59 60 58 55 52 54 60 62 57 54 55 56 60 67 71 70 70 73 80 86 85 83 86 82
45 44 46 46 44 46 49 51 53 50 48 52 51 46 52 60 60 62 65 63 64 66 63 60 63 63 57 52 52 53 56 67 77 78 72 71 79 90 91 85 86 86
Wind_Speed
2 2 3 3 3 3 4 5 6 6 6 6 7 7 7 7 7 7 7 7 7 8 8 9 9 10 11 11 11 12 13 14 14 14 15 18 20 22 22 24 23 21
2 2 2 2 3 3 4 5 6 7 7 6 6 6 7 7 7 7 7 8 8 8 9 9 10 10 10 11 11 11 11 11 13 13 13 16 18 19 20 22 25 24
2 2 2 2 3 4 5 6 6 7 7 6 6 6 7 7 8 8 8 8 9 9 9 10 10 11 11 11 10 11 11 11 12 12 14 17 18 18 19 19 23 26
2 2 3 3 3 4 5 6 6 7 7 6 6 7 7 8 9 9 9 9 10 10 10 11 12 12 12 12 12 12 12 12 13 12 13 17 18 19 21 20 21 26
3 3 3 4 4 4 5 6 6 7 7 7 7 7 8 8 9 9 10 10 11 12 12 12 13 13 13 13 13 13 13 13 14 14 13 16 18 20 21 21 21 25
4 4 4 4 4 5 5 6 6 7 7 7 7 7 8 8 9 10 11 12 13 13 13 14 14 14 14 13 12 12 12 14 15 16 16 16 18 21 21 22 24 26
5 5 5 5 5 6 6 6 6 6 7 7 8 8 8 9 10 11 12 13 14 14 15 16 15 15 14 14 12 12 13 14 15 17 19 19 19 21 23 25 27 28
6 6 6 6 7 7 7 7 7 7 8 8 9 9 9 10 10 11 12 13 15 15 15 15 16 14 13 13 13 13 15 15 15 18 22 22 23 23 24 27 28 29
7 6 7 7 7 8 7 7 8 8 8 9 10 10 10 11 11 12 13 13 14 15 13 13 14 14 13 13 12 13 14 15 17 19 22 24 25 25 26 28 28 28
8 7 8 8 8 8 7 8 9 9 9 10 11 12 12 12 13 13 14 14 13 13 12 12 13 13 14 13 12 12 13 14 16 18 21 24 26 26 28 28 28 28
9 8 8 8 8 8 8 8 9 10 11 11 11 12 13 14 14 15 15 14 13 12 12 12 12 12 12 12 13 12 12 13 15 16 20 24 25 26 29 29 29 29
9 9 8 8 8 8 8 9 10 11 11 12 12 13 14 15 15 16 15 14 14 13 13 13 12 11 11 11 11 12 12 13 14 16 21 24 24 26 28 29 29 29
9 9 8 8 8 8 9 10 11 12 12 13 14 14 15 16 16 17 17 16 15 14 14 13 12 11 11 10 10 10 12 13 14 16 20 23 23 25 26 26 27 28
9 8 8 8 9 9 10 12 13 13 14 14 15 15 16 17 17 17 17 17 16 15 14 13 12 12 11 9 9 9 11 13 15 16 19 21 22 24 25 24 25 28
9 9 8 8 9 9 11 13 13 13 14 14 15 16 16 16 17 17 17 17 16 15 14 13 13 12 11 9 8 9 10 13 15 15 18 20 21 23 25 24 25 28
10 9 9 9 10 10 12 13 14 14 13 13 15 16 15 15 15 15 16 15 15 15 13 12 11 10 11 11 9 8 11 14 15 15 16 18 20 21 23 24 25 28
10 10 11 11 11 12 13 14 14 14 13 14 15 15 14 14 14 14 14 14 14 13 11 10 10 10 12 12 9 8 12 14 14 14 14 15 18 20 21 23 26 28
11 12 12 12 12 13 14 14 14 14 14 15 15 14 12 13 13 13 13 13 12 12 11 10 10 11 13 12 9 9 12 14 14 13 13 13 15 18 19 21 24 29
12 12 12 13 13 14 14 15 14 14 14 15 14 12 12 13 13 13 13 12 11 10 10 11 10 10 12 11 9 10 12 12 13 12 12 12 13 15 17 18 21 26
12 12 13 13 14 14 14 13 13 13 13 14 13 12 12 13 13 13 13 11 11 11 11 11 9 9 11 11 10 10 10 11 12 11 11 12 12 13 17 19 20 22
12 12 13 13 13 13 13 12 12 12 12 12 12 12 13 13 13 14 13 12 11 11 12 12 10 10 11 11 11 10 10 10 11 11 11 12 11 13 17 21 21 21
12 12 12 13 13 13 13 12 12 12 12 11 11 12 13 13 13 14 13 13 13 13 13 12 10 10 10 11 11 11 10 10 12 12 12 12 12 14 18 21 22 22
11 11 12 13 13 12 12 11 11 12 12 11 11 13 13 13 13 14 13 13 16 18 18 17 14 11 10 11 11 11 11 12 13 13 13 13 13 15 20 22 21 22
10 11 12 12 12 12 12 12 11 11 12 11 11 14 15 12 13 15 16 15 15 17 19 21 19 16 11 9 10 11 12 14 14 14 15 14 13 16 22 24 22 22
10 10 11 11 11 12 12 10 8 9 11 10 10 12 13 12 13 15 17 19 19 20 20 21 21 18 12 9 10 11 12 14 15 15 16 16 14 18 23 25 23 23
9 10 11 10 11 11 9 6 5 7 9 9 9 10 9 9 10 11 14 18 21 21 21 21 21 19 13 11 11 10 11 14 15 15 16 17 15 17 22 24 23 24
Wind_Direction
338 340 340 337 329 333 332 328 323 315 313 311 310 313 313 311 314 317 322 326 326 327 325 319 315 310 307 306 302 299 295 291 288 282 279 278 274 269 267 267 264 258
322 324 322 321 312 320 325 320 317 311 306 307 307 308 307 303 301 301 305 311 315 320 321 319 318 315 313 313 310 306 304 297 292 293 292 289 283 274 272 274 272 266
293 301 295 298 302 317 325 321 319 315 309 306 304 304 304 298 295 295 295 297 304 312 316 318 318 316 313 312 310 309 308 302 298 299 297 297 296 286 277 272 271 272
255 271 272 274 285 306 319 324 326 326 318 310 304 302 300 297 296 295 294 295 300 307 313 315 315 314 311 308 307 307 307 306 309 310 302 298 299 294 287 280 274 275
239 243 247 254 271 293 308 317 324 328 325 314 304 299 297 298 298 297 296 297 299 304 309 312 313 312 309 306 304 304 307 312 317 318 311 304 303 301 295 287 279 278
230 231 236 244 260 279 293 303 311 318 323 319 309 301 297 297 297 296 295 295 296 300 303 306 311 311 308 305 299 297 306 310 313 315 314 311 308 305 302 294 287 285
234 234 237 246 260 273 282 288 293 300 312 317 312 307 302 298 296 294 292 291 291 292 294 299 306 309 308 305 300 300 308 309 310 315 316 316 313 309 305 300 295 290
238 239 242 250 262 271 278 283 289 295 301 306 307 306 303 298 295 293 291 289 287 287 288 291 299 304 305 304 303 306 311 313 314 315 314 315 316 314 309 304 300 295
237 241 246 252 261 270 279 287 294 299 299 300 302 303 301 295 291 289 288 287 286 285 283 283 291 299 304 305 305 309 313 312 311 310 311 315 317 315 312 308 305 300
238 241 246 252 260 270 279 287 299 308 309 305 303 302 300 295 291 287 284 282 282 283 281 282 287 294 302 306 308 312 312 309 307 305 308 316 318 316 315 312 308 304
242 244 248 254 260 271 281 292 305 313 312 309 305 301 299 295 292 289 283 277 275 278 279 281 284 288 295 304 309 311 309 307 307 305 310 319 321 317 316 316 313 309
247 247 251 257 262 272 283 292 301 305 307 309 309 306 301 297 293 291 286 279 273 275 278 278 278 280 286 295 303 308 310 311 310 310 316 323 323 319 318 319 320 318
252 250 254 262 268 274 282 289 294 301 308 310 308 305 302 300 296 292 289 283 277 277 279 277 274 275 280 285 294 305 312 315 316 317 322 326 325 323 324 325 327 325
256 253 256 263 268 274 282 285 291 301 307 305 303 302 301 300 298 294 290 287 284 282 280 278 276 276 276 276 288 304 313 318 321 322 324 327 327 329 332 332 332 331
255 252 256 262 267 275 282 285 294 303 302 300 302 301 300 299 298 296 291 286 286 286 281 278 280 276 271 274 289 306 316 321 322 321 323 328 330 332 336 337 336 338
252 250 256 263 270 278 283 289 301 304 298 300 305 302 299 300 299 296 293 290 291 292 287 282 281 268 261 274 292 309 321 323 321 318 319 328 334 334 336 338 338 340
253 252 258 266 273 279 282 292 302 301 299 304 306 302 300 300 299 297 296 296 296 297 293 288 282 267 265 278 291 306 321 323 318 315 315 321 334 339 338 340 340 341
255 256 261 270 277 280 283 293 301 299 302 307 304 302 302 301 300 300 299 300 300 301 300 295 287 276 276 281 285 298 317 322 314 310 310 312 325 335 338 341 343 344
259 260 266 272 278 282 284 292 300 302 307 310 306 302 302 301 301 301 300 300 299 299 300 300 296 290 287 285 285 296 315 322 313 303 303 308 314 323 331 335 339 345
261 264 270 274 278 282 283 288 298 303 307 311 309 305 303 301 301 303 301 299 298 298 300 302 302 300 297 290 289 300 313 319 312 299 296 303 306 314 327 332 333 338
264 269 274 276 278 279 279 283 293 299 304 310 310 309 307 304 302 302 298 294 293 292 295 302 309 311 305 292 288 298 309 311 305 297 295 299 298 306 326 335 333 327
266 273 277 278 278 276 275 281 290 296 301 304 304 307 310 307 305 304 303 302 302 300 296 295 299 305 305 296 289 293 297 299 300 296 296 298 297 303 320 333 337 330
267 275 280 280 279 276 275 280 287 293 298 302 306 309 307 308 313 317 320 318 313 310 307 301 297 299 302 296 291 291 290 292 298 298 297 298 296 300 313 324 331 332
266 272 278 279 277 274 275 281 287 295 302 308 314 313 309 317 328 328 324 320 314 307 304 302 300 299 300 296 288 289 288 287 293 297 298 301 298 297 308 315 319 324
266 270 275 276 274 273 276 283 289 297 302 304 309 311 316 330 335 326 321 320 316 309 304 301 297 291 293 298 289 286 286 282 287 296 300 302 301 299 306 311 312 316
264 268 271 272 276 279 279 279 282 285 287 287 287 291 303 319 320 317 319 318 315 310 304 300 294 289 294 300 288 283 286 281 280 290 299 303 300 296 301 307 308 311